This is the latest recevied weather packets stored in our database for station/object KF0PEC-15. If no packets are shown the sender has not sent any weather packets the latest 1 day(s).
| Time | Temp. | Humidity | Pressure | Rain* | Wind** | Luminosity | Snow |
|---|---|---|---|---|---|---|---|
| 1778072360 | -1.11° C | 92% | 1026.5 hPa | 0 mm | - | 106 W/m² | - |
| 1778071795 | -1.11° C | 93% | 1026.5 hPa | 0 mm | - | 563 W/m² | - |
| 1778071212 | -1.11° C | 92% | 1026.5 hPa | 0 mm | - | 320 W/m² | - |
| 1778070660 | -1.11° C | 92% | 1026.3 hPa | 0 mm | - | 223 W/m² | - |
| 1778069505 | -1.11° C | 92% | 1025.9 hPa | 0 mm | - | 48 W/m² | - |
| 1778069020 | -1.11° C | 93% | 1025.5 hPa | 0 mm | - | 23 W/m² | - |
| 1778068485 | -0.56° C | 93% | 1025.7 hPa | 0 mm | - | 4 W/m² | - |
| 1778067972 | -0.56° C | 93% | 1025.7 hPa | 0 mm | - | 0 W/m² | - |
| 1778067380 | -0.56° C | 93% | 1025.5 hPa | 0 mm | - | 0 W/m² | - |
| 1778066820 | -0.56° C | 93% | 1025.5 hPa | 0 mm | - | 0 W/m² | - |
| 1778066255 | -0.56° C | 92% | 1025.4 hPa | 0 mm | - | 0 W/m² | - |
| 1778065762 | -0.56° C | 92% | 1025 hPa | 0 mm | - | 0 W/m² | - |
| 1778065250 | -0.56° C | 91% | 1024.9 hPa | 0 mm | - | 0 W/m² | - |
| 1778064700 | 0° C | 90% | 1024.5 hPa | 0 mm | - | 0 W/m² | - |
| 1778064140 | 0° C | 89% | 1024.5 hPa | 0 mm | - | 0 W/m² | - |
| 1778063640 | 0° C | 89% | 1024.3 hPa | 0 mm | - | 0 W/m² | - |
| 1778063045 | 0° C | 89% | 1024.3 hPa | 0 mm | - | 0 W/m² | - |
| 1778062480 | 0° C | 88% | 1024.3 hPa | 0 mm | - | 0 W/m² | - |
| 1778061305 | 0° C | 88% | 1024.4 hPa | 0 mm | - | 0 W/m² | - |
| 1778060812 | 0° C | 88% | 1024.4 hPa | 0 mm | - | 0 W/m² | - |
| 1778060290 | 0° C | 86% | 1024 hPa | 0 mm | - | 0 W/m² | - |
| 1778059705 | 0.56° C | 86% | 1023.9 hPa | 0 mm | - | 0 W/m² | - |
| 1778059152 | 0.56° C | 86% | 1023.8 hPa | 0 mm | - | 0 W/m² | - |
| 1778058615 | 0.56° C | 85% | 1023.7 hPa | 0 mm | - | 0 W/m² | - |
| 1778058095 | 0.56° C | 85% | 1023.8 hPa | 0 mm | - | 0 W/m² | - |
* Rain latest hour (hover to see other rain measurements)
** Current wind speed in m/s (hover to see current wind gust speed)